Skip Page Navigation
NASA JPL Caltech
NASA Logo - Jet Propulsion Laboratory + View the NASA Portal
+ Center for Near-Earth Object Studies
JPL Home Earth Solar System Stars & Galaxies Technology
JPL Solar System Dynamics
BODIES ORBITS EPHEMERIDES TOOLS PHYSICAL DATA DISCOVERY FAQ SITE MAP
JPL Small-Body Database Browser
Search: [ help ]  
(2012 XQ93)
Classification: Apollo [NEO]          SPK-ID: 3620467
Ephemeris | Orbit Diagram | Orbital Elements | Mission Design | Physical Parameters | Close-Approach Data ]

[ hide orbit diagram ]

For accurate long-term ephemerides, please instead use our Horizons system.This orbit viewer was implemented using two-body methods, and hence should not be used for determining accurate long-term trajectories (over several years or decades) or planetary encounter circumstances.


[ revert to old Java-based viewer ]

Orbital Elements at Epoch 2459000.5 (2020-May-31.0) TDB
Reference: JPL 26 (heliocentric ecliptic J2000)
 Element Value Uncertainty (1-sigma)   Units 
e .4035598178543768 3.2774e-08  
a 1.56204148936462 2.7556e-08 au
q .931664310435654 6.4618e-08 au
i 10.49058808496257 8.3931e-06 deg
node 103.1016560627417 1.6648e-05 deg
peri 274.351638345434 3.5027e-05 deg
M 322.686005414863 4.4533e-05 deg
tp 2459074.410564243223
(2020-Aug-12.91056424)
9.0138e-05 TDB
period 713.0783885078517
1.95
1.8869e-05
5.166e-08
d
yr
n .5048533314174842 1.3359e-08 deg/d
Q 2.192418668293585 3.8676e-08 au
  Orbit Determination Parameters
   # obs. used (total)      146  
   data-arc span      1287 days (3.52 yr)  
   first obs. used      2012-12-08  
   last obs. used      2016-06-17  
   planetary ephem.      DE431  
   SB-pert. ephem.      SB431-N16  
   condition code      0  
   norm. resid. RMS      .38624  
   source      ORB  
   producer      Otto Matic  
   solution date      2017-Apr-12 06:13:48  

Additional Information
 Earth MOID = .119566 au 
 Jupiter MOID = 3.31556 au 
 T_jup = 4.317 
[ show covariance matrix ]

Ephemeris | Orbit Diagram | Orbital Elements | Mission Design | Physical Parameters | Close-Approach Data ]

Physical Parameter Table
Parameter Symbol Value Units Sigma Reference Notes
absolute magnitude H 21.7   n/a MPO327127  

[ show close-approach data ]
Ephemeris | Orbit Diagram | Orbital Elements | Mission Design | Physical Parameters | Close-Approach Data ]
ABOUT SSD CREDITS/AWARDS PRIVACY/COPYRIGHT GLOSSARY LINKS
FirstGov 2020-Oct-25 09:10 UT
(server date/time)  
NASA Home Page
Site Manager:   Ryan S. Park
Webmaster  Alan B. Chamberlin